Clinton, AR

9:43 AM CDT on May 25, 2017 (GMT -0500)
Clinton

Weather History for KCCA - January, 2013

Change the Weather History Date:

Wednesday, January 9, 2013

  Actual Average (KBVX) Record (KBVX)
Temperature  
Mean Temperature 50 °F -  
Max Temperature 57 °F 44 °F 75 °F (1957)
Min Temperature 44 °F 24 °F -1 °F (1970)
Degree Days  
Heating Degree Days 14    
Moisture  
Dew Point 47 °F    
Average Humidity 88    
Maximum Humidity 100    
Minimum Humidity 67    
Precipitation  
Precipitation 0.20 in - - ()
Sea Level Pressure  
Sea Level Pressure 30.30 in    
Wind  
Wind Speed 0 mph (NE)    
Max Wind Speed 5 mph    
Max Gust Speed -    
Visibility 6 miles    
Events Rain    
Averages and records for this station are not official NWS values.
T = Trace of Precipitation, MM = Missing Value Source: NWS Daily Summary

Daily Weather History Graph

Daily Weather History Graph

Search for Another Location

Airport or City:

Trip Planner

Search our weather history database for the weather conditions in past years. The results will help you decide how hot, cold, wet, or windy it might be!

Date:

Astronomy

Jan. 09, 2013 Rise Set
Actual Time 7:19 AM CST 5:14 PM CST
Civil Twilight 6:51 AM CST 5:42 PM CST
Nautical Twilight 6:20 AM CST 6:14 PM CST
Astronomical Twilight 5:49 AM CST 6:45 PM CST
Moon 4:59 AM CST (1/9) 3:16 PM CST (1/9)
Length of Visible Light 10h 50m
Length of Day
9h 54m
Waning Crescent, 6% of the Moon is Illuminated
Jan 9
Waning Crescent
Jan 11
New
Jan 18
First Quarter
Jan 26
Full
Feb 3
Last Quarter

Hourly Weather History & Observations

Time (CST) Temp. Dew Point Humidity Pressure Visibility Wind Dir Wind Speed Gust Speed Precip Events Conditions
12:15 AM 44.6 °F 44.6 °F 100% 30.24 in 1.2 mi Calm Calm - N/A Rain Light Rain
12:35 AM 44.6 °F 44.6 °F 100% 30.24 in 1.2 mi Calm Calm - 0.01 in Rain Light Rain
12:55 AM 44.6 °F 44.6 °F 100% 30.24 in 1.2 mi Calm Calm - 0.02 in Rain Light Rain
1:15 AM 44.6 °F 44.6 °F 100% 30.24 in 0.8 mi Calm Calm - 0.01 in Rain Light Rain
1:35 AM 44.6 °F 44.6 °F 100% 30.23 in 0.5 mi Calm Calm - 0.02 in Rain Light Rain
1:55 AM 44.6 °F 44.6 °F 100% 30.23 in 0.8 mi Calm Calm - 0.03 in Rain Light Rain
2:15 AM 44.6 °F 44.6 °F 100% 30.23 in 1.8 mi Calm Calm - 0.01 in Rain Light Rain
2:35 AM 46.4 °F 46.4 °F 100% 30.23 in 5.0 mi Calm Calm - 0.01 in Rain Light Rain
3:15 AM 46.4 °F 46.4 °F 100% 30.24 in 5.0 mi Calm Calm - N/A   Overcast
3:35 AM 46.4 °F 46.4 °F 100% 30.24 in 5.0 mi Calm Calm - N/A   Overcast
3:55 AM 46.4 °F 46.4 °F 100% 30.24 in 4.0 mi Calm Calm - N/A   Overcast
4:15 AM 46.4 °F 46.4 °F 100% 30.24 in 3.0 mi Calm Calm - N/A   Overcast
4:35 AM 46.4 °F 46.4 °F 100% 30.24 in 3.0 mi Calm Calm - N/A   Overcast
4:55 AM 46.4 °F 46.4 °F 100% 30.25 in 2.5 mi Calm Calm - N/A   Overcast
5:15 AM 46.4 °F 46.4 °F 100% 30.25 in 2.5 mi Calm Calm - N/A   Overcast
5:35 AM 46.4 °F 46.4 °F 100% 30.25 in 1.5 mi Calm Calm - N/A   Overcast
5:55 AM 46.4 °F 46.4 °F 100% 30.27 in 3.0 mi Calm Calm - N/A   Overcast
6:15 AM 46.4 °F 46.4 °F 100% 30.28 in 3.0 mi Calm Calm - N/A   Overcast
6:35 AM 46.4 °F 46.4 °F 100% 30.29 in 2.5 mi Calm Calm - N/A   Overcast
6:55 AM 46.4 °F 46.4 °F 100% 30.30 in 5.0 mi Calm Calm - N/A   Overcast
7:15 AM 46.4 °F 46.4 °F 100% 30.31 in 4.0 mi Calm Calm - N/A   Overcast
7:35 AM 46.4 °F 46.4 °F 100% 30.32 in 4.0 mi Calm Calm - N/A   Overcast
7:55 AM 46.4 °F 46.4 °F 100% 30.34 in 4.0 mi Calm Calm - N/A   Overcast
8:15 AM 46.4 °F 46.4 °F 100% 30.35 in 2.5 mi Calm Calm - N/A   Overcast
8:35 AM 48.2 °F 46.4 °F 93% 30.34 in 2.0 mi Calm Calm - N/A   Overcast
8:55 AM 48.2 °F 48.2 °F 100% 30.35 in 2.0 mi Calm Calm - N/A   Overcast
9:15 AM 48.2 °F 48.2 °F 100% 30.35 in 5.0 mi Calm Calm - N/A   Overcast
9:35 AM 48.2 °F 48.2 °F 100% 30.36 in 6.0 mi Calm Calm - N/A   Overcast
10:15 AM 53.6 °F 50.0 °F 88% 30.35 in 10.0 mi Calm Calm - N/A   Overcast
10:35 AM 53.6 °F 48.2 °F 82% 30.35 in 10.0 mi Calm Calm - N/A   Overcast
10:55 AM 55.4 °F 48.2 °F 77% 30.35 in 10.0 mi Calm Calm - N/A   Overcast
11:15 AM 55.4 °F 48.2 °F 77% 30.34 in 10.0 mi Calm Calm - N/A   Overcast
11:55 AM 55.4 °F 46.4 °F 72% 30.32 in 10.0 mi NE 3.5 mph - N/A   Overcast
12:15 PM 55.4 °F 46.4 °F 72% 30.32 in 10.0 mi ENE 3.5 mph - N/A   Overcast
12:35 PM 57.2 °F 46.4 °F 67% 30.31 in 10.0 mi NE 4.6 mph - N/A   Overcast
12:55 PM 57.2 °F 46.4 °F 67% 30.31 in 10.0 mi Calm Calm - N/A   Overcast
1:15 PM 57.2 °F 46.4 °F 67% 30.30 in 10.0 mi Calm Calm - N/A   Overcast
1:35 PM 57.2 °F 46.4 °F 67% 30.29 in 10.0 mi ENE 4.6 mph - N/A   Overcast
2:15 PM 57.2 °F 46.4 °F 67% 30.29 in 10.0 mi ENE 4.6 mph - N/A   Clear
2:35 PM 57.2 °F 46.4 °F 67% 30.29 in 10.0 mi Calm Calm - N/A   Clear
2:55 PM 57.2 °F 46.4 °F 67% 30.30 in 10.0 mi NE 3.5 mph - N/A   Mostly Cloudy
3:15 PM 57.2 °F 46.4 °F 67% 30.30 in 10.0 mi NE 3.5 mph - N/A   Overcast
3:35 PM 57.2 °F 46.4 °F 67% 30.30 in 10.0 mi Calm Calm - N/A   Overcast
3:55 PM 57.2 °F 46.4 °F 67% 30.30 in 10.0 mi Calm Calm - N/A   Overcast
4:15 PM 55.4 °F 48.2 °F 77% 30.30 in 10.0 mi Calm Calm - N/A   Mostly Cloudy
4:35 PM 55.4 °F 46.4 °F 72% 30.30 in 10.0 mi Calm Calm - N/A   Mostly Cloudy
4:55 PM 55.4 °F 46.4 °F 72% 30.31 in 9.0 mi Calm Calm - N/A   Overcast
5:15 PM 55.4 °F 48.2 °F 77% 30.31 in 10.0 mi Calm Calm - N/A Rain Light Rain
5:35 PM 55.4 °F 46.4 °F 72% 30.31 in 10.0 mi NE 3.5 mph - N/A   Overcast
6:15 PM 55.4 °F 46.4 °F 72% 30.32 in 10.0 mi Calm Calm - N/A   Overcast
6:35 PM 55.4 °F 46.4 °F 72% 30.32 in 6.0 mi Calm Calm - N/A Rain Light Rain
7:15 PM 51.8 °F 46.4 °F 82% 30.32 in 5.0 mi Calm Calm - N/A Rain Light Rain
7:35 PM 51.8 °F 46.4 °F 82% 30.33 in 4.0 mi Calm Calm - 0.01 in Rain Light Rain
8:15 PM 50.0 °F 46.4 °F 87% 30.33 in 5.0 mi Calm Calm - 0.01 in Rain Light Rain
8:35 PM 50.0 °F 46.4 °F 87% 30.33 in 5.0 mi Calm Calm - 0.03 in Rain Light Rain
9:15 PM 50.0 °F 46.4 °F 87% 30.32 in 5.0 mi Calm Calm - 0.01 in Rain Light Rain
9:35 PM 50.0 °F 46.4 °F 87% 30.32 in 5.0 mi Calm Calm - 0.01 in Rain Light Rain
9:55 PM 50.0 °F 46.4 °F 87% 30.31 in 4.0 mi Calm Calm - 0.02 in Rain Rain
10:15 PM 50.0 °F 46.4 °F 87% 30.31 in 4.0 mi Calm Calm - 0.01 in Rain Light Rain
10:35 PM 50.0 °F 48.2 °F 94% 30.31 in 4.0 mi Calm Calm - 0.02 in Rain Light Rain
10:55 PM 50.0 °F 48.2 °F 94% 30.31 in 3.0 mi Calm Calm - 0.03 in Rain Rain
11:15 PM 50.0 °F 48.2 °F 94% 30.31 in 3.0 mi Calm Calm - 0.01 in Rain Light Rain
11:35 PM 50.0 °F 48.2 °F 94% 30.29 in 4.0 mi Calm Calm - 0.03 in Rain Light Rain
11:55 PM 50.0 °F 48.2 °F 94% 30.27 in 3.0 mi Calm Calm - 0.05 in Rain Light Rain